Simultaneous Nadir Overpasses (SNOs) Predictions

Prediction of SNOs between GOES-15 and METOP-A Satellite Orbit:

Table of predicted SNOs for the next 14.0 days since TLE Epoch: 3/21/2014
Index Date Time (GOES-15) GOES-15 Lat,Lon METOP-A Lat,Lon Distance(km) Time Diff (sec)
1 03/22/2014 06:19:00 -0.05,-134.93 0.37,-132.99 220.03 80
2 03/23/2014 18:37:51 0.05,-134.99 0.62,-137.56 292.43 80
3 03/24/2014 18:19:50 0.04,-135.02 -0.50,-132.56 280.25 80
4 03/26/2014 06:38:49 -0.04,-135.05 -0.48,-137.16 240.26 80
5 03/27/2014 06:15:28 -0.04,-135.08 0.58,-132.16 332.10 80
6 03/28/2014 18:34:18 0.04,-135.13 0.40,-136.72 181.20 80
7 03/29/2014 18:16:18 0.04,-135.16 -0.73,-131.73 391.17 80
8 03/31/2014 06:35:16 -0.04,-135.18 -0.29,-136.32 129.61 80
9 04/01/2014 06:11:56 -0.04,-135.20 0.84,-131.33 442.29 80
10 04/02/2014 18:30:45 0.04,-135.25 0.20,-135.88 72.06 80
11 04/03/2014 18:12:44 0.03,-135.27 -0.94,-130.89 499.70 80




NCC Satellite Simultaneous Nadir Overpasses (SNOs) Prediction Service
